EN

Hourly Weather Abashevo

Today, 14 June, Monday

Time Temperature Precipitation Wind Pressure Humidity
00:00 +16°C° 0 mm 2 mps 743 mmHg 92%
01:00 +16°C° 0 mm 2 mps 743 mmHg 93%
02:00 +16°C° 0 mm 2 mps 743 mmHg 93%
03:00 +16°C° 0 mm 1 mps 743 mmHg 92%
04:00 +16°C° 0 mm 1 mps 744 mmHg 91%
05:00 +18°C° 0 mm 1 mps 744 mmHg 90%
06:00 +19°C° 0 mm 1 mps 744 mmHg 88%
07:00 +20°C° 0.1 mm 1 mps 744 mmHg 84%
08:00 +22°C° 0.1 mm 1 mps 745 mmHg 79%
09:00 +23°C° 0 mm 1 mps 745 mmHg 75%
10:00 +24°C° 0.1 mm 1 mps 745 mmHg 70%
11:00 +23°C° 0.1 mm 0 mps 745 mmHg 66%
12:00 +24°C° 0.1 mm 0 mps 745 mmHg 61%
13:00 +24°C° 0 mm 0 mps 745 mmHg 59%
14:00 +27°C° 0 mm 1 mps 745 mmHg 58%
15:00 +27°C° 0 mm 1 mps 745 mmHg 56%
16:00 +26°C° 0.2 mm 1 mps 745 mmHg 62%
17:00 +26°C° 0.2 mm 1 mps 745 mmHg 67%
18:00 +25°C° 0.2 mm 1 mps 745 mmHg 73%
19:00 +23°C° 0.3 mm 1 mps 745 mmHg 78%
20:00 +22°C° 0.3 mm 1 mps 745 mmHg 82%
21:00 +19°C° 0.3 mm 2 mps 745 mmHg 87%
22:00 +19°C° 0.2 mm 2 mps 745 mmHg 88%
23:00 +19°C° 0.2 mm 1 mps 745 mmHg 89%

Tomorrow, 15 June, Tuesday

Time Temperature Precipitation Wind Pressure Humidity
00:00 +19°C° 0.2 mm 1 mps 745 mmHg 91%
01:00 +18°C° 0 mm 1 mps 745 mmHg 92%
02:00 +18°C° 0 mm 1 mps 745 mmHg 92%
03:00 +18°C° 0 mm 1 mps 745 mmHg 93%
04:00 +18°C° 0 mm 1 mps 745 mmHg 92%
05:00 +19°C° 0 mm 1 mps 745 mmHg 92%
06:00 +18°C° 0 mm 2 mps 745 mmHg 91%
07:00 +20°C° 0 mm 2 mps 745 mmHg 86%
08:00 +21°C° 0 mm 2 mps 745 mmHg 82%
09:00 +22°C° 0 mm 3 mps 745 mmHg 78%
10:00 +24°C° 0.1 mm 3 mps 744 mmHg 74%
11:00 +25°C° 0.1 mm 3 mps 744 mmHg 70%
12:00 +25°C° 0.1 mm 3 mps 744 mmHg 67%
13:00 +26°C° 0.3 mm 2 mps 744 mmHg 66%
14:00 +26°C° 0.3 mm 2 mps 743 mmHg 66%
15:00 +26°C° 0.3 mm 2 mps 743 mmHg 66%
16:00 +25°C° 0.2 mm 2 mps 743 mmHg 70%
17:00 +25°C° 0.2 mm 2 mps 742 mmHg 75%
18:00 +25°C° 0.2 mm 3 mps 742 mmHg 79%
19:00 +23°C° 0.3 mm 2 mps 742 mmHg 83%
20:00 +21°C° 0.3 mm 2 mps 742 mmHg 86%
21:00 +19°C° 0.3 mm 2 mps 742 mmHg 90%
22:00 +19°C° 0 mm 2 mps 741 mmHg 90%
23:00 +18°C° 0 mm 2 mps 741 mmHg 89%

Day after tomorrow, 16 June, Wednesday

Time Temperature Precipitation Wind Pressure Humidity
00:00 +17°C° 0 mm 2 mps 741 mmHg 89%
01:00 +17°C° 0 mm 2 mps 741 mmHg 89%
02:00 +17°C° 0 mm 2 mps 740 mmHg 90%
03:00 +16°C° 0 mm 2 mps 740 mmHg 91%
04:00 +17°C° 0 mm 2 mps 740 mmHg 90%
05:00 +18°C° 0 mm 2 mps 740 mmHg 90%
06:00 +18°C° 0 mm 2 mps 740 mmHg 89%
07:00 +20°C° 0 mm 3 mps 740 mmHg 84%
08:00 +21°C° 0 mm 3 mps 740 mmHg 79%
09:00 +24°C° 0 mm 3 mps 740 mmHg 74%
10:00 +25°C° 0 mm 3 mps 740 mmHg 69%
11:00 +26°C° 0 mm 3 mps 741 mmHg 65%
12:00 +27°C° 0 mm 3 mps 741 mmHg 60%
13:00 +27°C° 0 mm 3 mps 741 mmHg 60%
14:00 +28°C° 0 mm 4 mps 741 mmHg 60%
15:00 +28°C° 0 mm 4 mps 741 mmHg 59%
16:00 +26°C° 0.7 mm 4 mps 741 mmHg 67%
17:00 +25°C° 0.7 mm 4 mps 742 mmHg 75%
18:00 +22°C° 0.7 mm 5 mps 742 mmHg 83%
19:00 +21°C° 0.3 mm 4 mps 742 mmHg 86%
20:00 +20°C° 0.3 mm 4 mps 743 mmHg 90%
21:00 +19°C° 0.3 mm 4 mps 744 mmHg 93%
22:00 +18°C° 0 mm 4 mps 744 mmHg 93%
23:00 +17°C° 0 mm 4 mps 745 mmHg 93%

17 June, Thursday

Time Temperature Precipitation Wind Pressure Humidity
00:00 +15°C° 0 mm 4 mps 745 mmHg 93%
01:00 +14°C° 0 mm 4 mps 746 mmHg 93%
02:00 +14°C° 0 mm 3 mps 746 mmHg 93%
03:00 +13°C° 0 mm 3 mps 747 mmHg 93%
04:00 +13°C° 0 mm 3 mps 747 mmHg 91%
05:00 +14°C° 0 mm 3 mps 747 mmHg 89%
06:00 +14°C° 0 mm 3 mps 748 mmHg 87%
07:00 +17°C° 0 mm 3 mps 748 mmHg 79%
08:00 +18°C° 0 mm 3 mps 749 mmHg 70%
09:00 +19°C° 0 mm 4 mps 749 mmHg 61%
10:00 +20°C° 0 mm 4 mps 749 mmHg 57%
11:00 +21°C° 0 mm 4 mps 749 mmHg 53%
12:00 +22°C° 0 mm 4 mps 750 mmHg 48%
13:00 +22°C° 0 mm 5 mps 750 mmHg 49%
14:00 +22°C° 0 mm 5 mps 750 mmHg 50%
15:00 +22°C° 0 mm 5 mps 750 mmHg 50%
16:00 +22°C° 0 mm 4 mps 750 mmHg 55%
17:00 +21°C° 0 mm 4 mps 750 mmHg 60%
18:00 +21°C° 0 mm 4 mps 750 mmHg 65%
19:00 +19°C° 0 mm 3 mps 751 mmHg 69%
20:00 +17°C° 0 mm 3 mps 751 mmHg 72%
21:00 +16°C° 0 mm 2 mps 751 mmHg 76%
22:00 +15°C° 0 mm 2 mps 751 mmHg 77%
23:00 +14°C° 0 mm 2 mps 752 mmHg 78%

18 June, Friday

Time Temperature Precipitation Wind Pressure Humidity
00:00 +14°C° 0 mm 2 mps 752 mmHg 78%
01:00 +12°C° 0 mm 3 mps 752 mmHg 79%
02:00 +12°C° 0 mm 3 mps 752 mmHg 80%
03:00 +12°C° 0 mm 3 mps 753 mmHg 80%
04:00 +12°C° 0 mm 3 mps 753 mmHg 80%
05:00 +13°C° 0 mm 3 mps 753 mmHg 80%
06:00 +15°C° 0 mm 2 mps 754 mmHg 80%
07:00 +16°C° 0 mm 2 mps 754 mmHg 74%
08:00 +18°C° 0 mm 2 mps 754 mmHg 68%
09:00 +20°C° 0 mm 2 mps 754 mmHg 63%
10:00 +21°C° 0 mm 3 mps 754 mmHg 60%
11:00 +22°C° 0 mm 3 mps 754 mmHg 57%
12:00 +24°C° 0 mm 3 mps 754 mmHg 54%
13:00 +24°C° 0 mm 3 mps 754 mmHg 53%
14:00 +24°C° 0 mm 3 mps 754 mmHg 52%
15:00 +25°C° 0 mm 3 mps 754 mmHg 51%
16:00 +25°C° 0 mm 2 mps 754 mmHg 55%
17:00 +25°C° 0 mm 2 mps 754 mmHg 59%
18:00 +25°C° 0 mm 1 mps 754 mmHg 64%
19:00 +23°C° 0 mm 1 mps 754 mmHg 67%
20:00 +22°C° 0 mm 1 mps 754 mmHg 70%
21:00 +20°C° 0 mm 1 mps 754 mmHg 73%
22:00 +19°C° 0 mm 1 mps 754 mmHg 77%
23:00 +18°C° 0 mm 1 mps 754 mmHg 80%

19 June, Saturday

Time Temperature Precipitation Wind Pressure Humidity
00:00 +16°C° 0 mm 2 mps 755 mmHg 84%
01:00 +16°C° 0 mm 2 mps 755 mmHg 86%
02:00 +16°C° 0 mm 2 mps 755 mmHg 87%
03:00 +15°C° 0 mm 2 mps 755 mmHg 89%
04:00 +16°C° 0 mm 2 mps 755 mmHg 87%
05:00 +17°C° 0 mm 2 mps 755 mmHg 86%
06:00 +18°C° 0 mm 2 mps 755 mmHg 85%
07:00 +19°C° 0 mm 3 mps 755 mmHg 80%
08:00 +21°C° 0 mm 3 mps 755 mmHg 75%
09:00 +24°C° 0 mm 3 mps 755 mmHg 70%
10:00 +25°C° 0 mm 4 mps 755 mmHg 66%
11:00 +26°C° 0 mm 4 mps 755 mmHg 62%
12:00 +27°C° 0 mm 4 mps 754 mmHg 58%
13:00 +27°C° 0 mm 4 mps 754 mmHg 57%
14:00 +27°C° 0 mm 4 mps 754 mmHg 56%
15:00 +28°C° 0 mm 4 mps 754 mmHg 56%
16:00 +27°C° 0 mm 4 mps 753 mmHg 60%
17:00 +27°C° 0 mm 4 mps 753 mmHg 65%
18:00 +26°C° 0 mm 4 mps 753 mmHg 70%
19:00 +24°C° 0 mm 3 mps 753 mmHg 75%
20:00 +22°C° 0 mm 3 mps 753 mmHg 80%
21:00 +20°C° 0 mm 3 mps 753 mmHg 85%
22:00 +20°C° 0 mm 3 mps 753 mmHg 87%
23:00 +19°C° 0 mm 3 mps 753 mmHg 88%
Show more